New Delhi, India

4:13 AM IST on February 08, 2016 (GMT +0530)
Indira Gandhi International

Weather History for VIDP - May, 2013

Change the Weather History Date:

Thursday, May 16, 2013

  Actual Average Record
Temperature  
Mean Temperature 94 °F -  
Max Temperature 105 °F 100 °F 113 °F (2007)
Min Temperature 84 °F 80 °F 73 °F (1997)
Cooling Degree Days 30    
Growing Degree Days 44 (Base 50)    
Moisture  
Dew Point 48 °F    
Average Humidity 22    
Maximum Humidity 35    
Minimum Humidity 11    
Precipitation  
Precipitation 0.00 in - - ()
Sea Level Pressure  
Sea Level Pressure 29.56 in    
Wind  
Wind Speed 5 mph ()    
Max Wind Speed 13 mph    
Max Gust Speed 21 mph    
Visibility 1.5 miles    
Events      
Averages and records for this station are not official NWS values.
T = Trace of Precipitation, MM = Missing Value Source: Averaged Metar Reports

Daily Weather History Graph

Daily Weather History Graph

Search for Another Location

Airport or City:

Trip Planner

Search our weather history database for the weather conditions in past years. The results will help you decide how hot, cold, wet, or windy it might be!

Date:

Astronomy

May. 16, 2013 Rise Set
Actual Time 5:30 AM IST 7:05 PM IST
Civil Twilight 5:04 AM IST 7:31 PM IST
Nautical Twilight 4:33 AM IST 8:02 PM IST
Astronomical Twilight 4:01 AM IST 8:34 PM IST
Moon 10:30 AM IST (5/16) 11:54 PM IST (5/16)
Length of Visible Light 14h 26m
Length of Day
13h 35m
Waxing Crescent, 32% of the Moon is Illuminated
May 16
Waxing Crescent
May 18
First Quarter
May 25
Full
Jun 1
Last Quarter
Jun 8
New

Hourly Weather History & Observations

Time (IST) Temp. Heat Index Dew Point Humidity Pressure Visibility Wind Dir Wind Speed Gust Speed Precip Events Conditions
12:00 AM 89.6 °F - 51.8 °F 27% 29.59 in 1.6 mi SW 4.6 mph - N/A   Haze
12:30 AM 87.8 °F - 50.0 °F 27% 29.56 in 1.6 mi SW 3.5 mph - N/A   Haze
1:00 AM 86.0 °F - 51.8 °F 31% 29.56 in 1.6 mi Calm Calm - N/A   Haze
1:30 AM 86.0 °F - 51.8 °F 31% 29.56 in 1.6 mi Calm Calm - N/A   Haze
2:00 AM 86.0 °F - 51.8 °F 31% 29.56 in 1.7 mi West 5.8 mph - N/A   Haze
2:30 AM 84.2 °F 82.8 °F 53.6 °F 35% 29.56 in 1.7 mi Calm Calm - N/A   Haze
4:00 AM 86.0 °F - 50.0 °F 29% 29.56 in 1.4 mi NNW 5.8 mph - N/A   Haze
4:30 AM 86.0 °F - 50.0 °F 29% 29.56 in 1.4 mi NNW 10.4 mph - N/A   Haze
5:00 AM 84.2 °F - 51.8 °F 33% 29.56 in 1.4 mi NNE 3.5 mph - N/A   Haze
5:30 AM 84.2 °F - 51.8 °F 33% 29.86 in 1.4 mi NNE 3.5 mph - N/A   Haze
6:00 AM 84.2 °F - 51.8 °F 33% 29.56 in 1.4 mi West 4.6 mph - N/A   Haze
6:30 AM 84.2 °F 82.8 °F 53.6 °F 35% 29.59 in 1.0 mi WSW 4.6 mph - N/A   Smoke
7:00 AM 86.0 °F - 51.8 °F 31% 29.59 in 1.0 mi West 4.6 mph - N/A   Smoke
7:30 AM 86.0 °F 84.2 °F 53.6 °F 33% 29.59 in 1.0 mi SSW 4.6 mph - N/A   Smoke
8:00 AM 89.6 °F 87.3 °F 53.6 °F 29% 29.59 in 1.3 mi North 3.5 mph - N/A   Smoke
8:30 AM 91.4 °F 89.1 °F 53.6 °F 28% 29.59 in 1.3 mi North 3.5 mph - N/A   Smoke
9:00 AM 93.2 °F 90.8 °F 53.6 °F 26% 29.59 in 1.3 mi North 4.6 mph - N/A   Smoke
9:30 AM 95.0 °F 92.7 °F 53.6 °F 25% 29.59 in 1.3 mi NNE 3.5 mph - N/A   Smoke
10:00 AM 95.0 °F 92.7 °F 53.6 °F 25% 29.59 in 1.3 mi NNW 5.8 mph - N/A   Smoke
11:00 AM 100.4 °F - 51.8 °F 20% 29.59 in 1.3 mi West 8.1 mph - N/A   Haze
11:30 AM 100.4 °F - 50.0 °F 18% 29.56 in 1.3 mi West 8.1 mph - N/A   Haze
12:00 PM 102.2 °F - 50.0 °F 17% 29.56 in 1.3 mi NW 10.4 mph - N/A   Haze
12:30 PM 104.0 °F - 50.0 °F 16% 29.56 in 1.4 mi NW 9.2 mph 20.7 mph N/A   Haze
1:00 PM 104.0 °F - 48.2 °F 15% 29.56 in 1.4 mi WNW 9.2 mph 20.7 mph N/A   Haze
1:30 PM 104.0 °F - 48.2 °F 15% 29.53 in 1.4 mi NW 9.2 mph 20.7 mph N/A   Haze
2:00 PM 104.0 °F - 46.4 °F 14% 29.53 in 1.5 mi NW 9.2 mph 20.7 mph N/A   Haze
2:30 PM 104.0 °F - 42.8 °F 12% 29.53 in 1.5 mi NW 9.2 mph 20.7 mph N/A   Haze
3:00 PM 104.0 °F - 41.0 °F 12% 29.53 in 1.6 mi NW 9.2 mph 20.7 mph N/A   Haze
3:30 PM 105.8 °F - 41.0 °F 11% 29.50 in 1.6 mi WNW 9.2 mph 20.7 mph N/A   Haze
4:00 PM 104.0 °F - 41.0 °F 12% 29.50 in 1.6 mi NW 9.2 mph 20.7 mph N/A   Haze
4:30 PM 104.0 °F - 41.0 °F 12% 29.50 in 1.6 mi NW 9.2 mph 20.7 mph N/A   Haze
5:00 PM 104.0 °F - 41.0 °F 12% 29.50 in 1.6 mi NW 9.2 mph 20.7 mph N/A   Haze
5:30 PM 104.0 °F - 42.8 °F 12% 29.47 in 1.6 mi NNW 12.7 mph - N/A   Haze
6:00 PM 102.2 °F - 42.8 °F 13% 29.47 in 1.7 mi NNW 12.7 mph - N/A   Haze
7:00 PM 100.4 °F - 42.8 °F 14% 29.50 in - NW 8.1 mph - N/A   Haze
7:30 PM 100.4 °F - 42.8 °F 14% 29.50 in - NW 6.9 mph - N/A   Haze
8:00 PM 98.6 °F - 42.8 °F 15% 29.53 in 2.2 mi NW 5.8 mph - N/A   Haze
8:30 PM 96.8 °F - 44.6 °F 17% 29.53 in 2.2 mi NW 6.9 mph - N/A   Haze
9:00 PM 96.8 °F - 44.6 °F 17% 29.53 in 2.2 mi NW 5.8 mph - N/A   Haze
9:30 PM 95.0 °F - 46.4 °F 19% 29.56 in - Calm Calm - N/A   Haze
10:30 PM 91.4 °F - 48.2 °F 23% 29.56 in 1.3 mi Calm Calm - N/A   Haze
11:00 PM 91.4 °F - 33.8 °F 13% 29.56 in 1.3 mi Calm Calm - N/A   Haze
11:30 PM 91.4 °F - 50.0 °F 24% 29.56 in 1.3 mi Calm Calm - N/A   Haze